Regional Weather Roundup
Issued by NWS

Home | Current Version | Previous Version | Text Only | Print | Product List | Glossary On
Versions: 1 2 3 4 5 6 7 8 9 10 11 12 13 14 15 16 17 18 19 20 21 22 23 24 25 26 27 28 29 30 31 32 33 34 35 36 37 38 39 40 41 42 43 44 45 46 47 48 49 50
000
ASUS43 KMPX 012010
RWRMN
WEATHER ROUNDUP FOR MINNESOTA
NATIONAL WEATHER SERVICE TWIN CITIES/CHANHASSEN MN
300 PM CDT WED JUL 01 2015


NOTE: "FAIR" INDICATES FEW OR NO CLOUDS BELOW 12,000 FEET WITH NO
SIGNIFICANT WEATHER AND/OR OBSTRUCTIONS TO VISIBILITY. N/A MEANS
CURRENT SKY AND/OR WEATHER CONDITIONS ARE NOT AVAILABLE.

MNZ060>063-068>070-012100-
   Twin Cities Metro

CITY           SKY/WX    TMP DP  RH WIND       PRES   REMARKS
TWIN CITIES    MOSUNNY   69  46  43 S7        30.01F
ST PAUL        MOSUNNY   69  52  54 CALM      30.01F
CRYSTAL        MOSUNNY   72  43  35 VRB3      30.00S
LAKEVILLE      PTSUNNY   64  50  59 E7        30.02S
EDEN PRAIRIE   PTSUNNY   69  48  47 E7        30.00F
SOUTH ST PAUL  MOSUNNY   68  50  52 SE3       30.01S
LAKE ELMO      FAIR      72  52  49 CALM      30.02S
$$
MNZ001>005-007-008-013>017-022>024-027-028-012100-
   Northwest Minnesota

CITY           SKY/WX    TMP DP  RH WIND       PRES   REMARKS
BEMIDJI        MOSUNNY   74  58  57 NW6       29.96S
HALLOCK        MOSUNNY   79  55  44 SW5       29.93S
ROSEAU         SUNNY     79  59  50 CALM      29.95S
WARROAD        SUNNY     77  59  53 CALM      29.95F
THIEF RVR FALL MOSUNNY   79  57  47 S7        29.95F
CROOKSTON      MOSUNNY   79  61  53 SW7       29.96S
FOSSTON        SUNNY     79  59  50 CALM      29.97S
DETROIT LAKES  MOSUNNY   73  57  56 SW6       30.00R
MOORHEAD       MOSUNNY   73  61  64 S10G16    29.97S
PARK RAPIDS    PTSUNNY   76  58  53 S9        29.97F
MAHNOMEN       FAIR      75  60  58 SW6       29.97S
$$
MNZ006-009>011-018-025>026-012100-
   North Central Minnesota

CITY           SKY/WX    TMP DP  RH WIND       PRES   REMARKS
BAUDETTE       SUNNY     78  50  37 NE3       29.95F
FLAG ISLAND    MOSUNNY   72  59  64 S10       29.94S
INTL FALLS     MOSUNNY   76  52  43 CALM      29.96F
WASKISH        SUNNY     77  55  47 W5        29.96S
BIG FORK       MOSUNNY   75  55  50 CALM      29.98S
LONGVILLE      PTSUNNY   73  57  56 S6        29.98S
GRAND RAPIDS   PTSUNNY   73  55  53 SE7       29.99F
CRANE LAKE     MOSUNNY   72  52  49 N2        29.99S
ORR            SUNNY     72  50  46 CALM      29.96S
COOK           MOSUNNY   73  52  46 SW3       29.99R
WALKER         LGT RAIN  72  60  66 S3        29.96S
$$
MNZ012-019>021-037-012100-
   Northeast Minnesota

CITY           SKY/WX    TMP DP  RH WIND       PRES   REMARKS
DULUTH         MOSUNNY   70  54  56 VRB7      30.00F
ELY            PTSUNNY   70  48  46 CALM      29.99S
HIBBING        PTSUNNY   73  52  47 VRB3      29.99S
EVELETH        SUNNY     72  52  49 W7        30.00S
DULUTH HARBOR  MOSUNNY   66  57  72 E7        30.01S
TWO HARBORS    MOSUNNY   72  57  60 S7        30.00R
SILVER BAY     MOSUNNY   68  48  49 S7        30.00R
GRAND MARAIS     N/A     55  49  80 S3        30.02F
G MARAIS ARPRT PTSUNNY   63  45  51 S8        30.03F
$$
MNZ029>031-032-039>041-046>048-054>057-064-012100-
   West Central Minnesota

CITY           SKY/WX    TMP DP  RH WIND       PRES   REMARKS
FERGUS FALLS   SUNNY     73  57  56 S10       29.98S
WHEATON        SUNNY     70  55  60 SE10      29.99S
MORRIS         SUNNY     73  54  49 SE9       29.98S
ALEXANDRIA     SUNNY     72  52  49 SE8       30.02S
ELBOW LAKE     FAIR      72  56  57 S9        29.99S
WADENA         SUNNY     73  54  49 S8        29.99S
GLENWOOD       SUNNY     72  54  53 SE3       30.01F
APPLETON       MOSUNNY   73  55  53 SE8       29.98S
BENSON         MOSUNNY   72  48  43 S9        29.99S
ORTONVILLE     MOSUNNY   72  57  60 SE8       29.98S
MADISON        MOSUNNY   72  57  60 SE6       29.98S
WILLMAR        FAIR      72  54  53 SE9       30.01F
$$
MNZ033>034-036-042>043-049>051-058-059-012100-
   Central Minnesota

CITY           SKY/WX    TMP DP  RH WIND       PRES   REMARKS
ST CLOUD       SUNNY     71  47  42 SE7       30.01S
SAUK CENTRE    FAIR      70  52  52 SE3       30.01F
PAYNESVILLE    SUNNY     67  48  51 E7        30.02S
AITKIN         MOSUNNY   75  57  53 CALM      29.99S
PINE RIVER       N/A     75  57  53 SW5       30.01S
BRAINERD       SUNNY     75  51  43 SW9       30.00S
STAPLES        SUNNY     73  52  46 S8        29.99S
LONG PRAIRIE   FAIR      70  54  56 SE5       30.02S
LITTLE FALLS   MOSUNNY   72  46  40 S5        30.01S
LITCHFIELD     MOSUNNY   72  52  49 E6        30.02R
BUFFALO        MOSUNNY   69  45  41 SE5       30.02S
MAPLE LAKE     MOSUNNY   70  53  55 SE5       30.02S
$$
MNZ037-044-045-052-053-012100-
   East Central Minnesota

CITY           SKY/WX    TMP DP  RH WIND       PRES   REMARKS
PRINCETON      SUNNY     75  50  41 CALM      30.01S
MORA           SUNNY     70  50  49 CALM      30.02S
CAMBRIDGE      SUNNY     75  55  50 E3        29.99S
RUSH CITY      SUNNY     72  53  51 CALM      30.01S
MOOSE LAKE     MOSUNNY   72  59  64 CALM      29.99S
HINCKLEY       FAIR      73  54  49 NW3       30.01S
CLOQUET        PTSUNNY   72  54  53 E3        30.01S
MCGREGOR       PTSUNNY   73  54  49 W8        30.00F
$$
MNZ071>073-080-081-089-090-097-098-012100-
   Southwest Minnesota

CITY           SKY/WX    TMP DP  RH WIND       PRES   REMARKS
MONTEVIDEO     PTSUNNY   70  54  56 S8        29.99S
GRANITE FALLS  CLOUDY    68  53  59 E8        30.01S
CANBY          CLOUDY    68  58  68 SE6       29.99S
MARSHALL       PTSUNNY   72  55  56 S7        29.97S
REDWOOD FALLS  PTSUNNY   68  53  58 E8        29.99S
OLIVIA         SUNNY     68  54  60 SE7       30.00S
PIPESTONE      SUNNY     73  55  53 SE10      29.96S
WINDOM         SUNNY     72  54  53 E6        29.99R
WORTHINGTON    MOSUNNY   73  52  46 SE13      29.97S
JACKSON        CLOUDY    72  55  56 SE10      29.98S
TRACY          PTSUNNY   72  55  56 E10       29.99R
SLAYTON        PTSUNNY   73  56  55 E10G16    29.99R
$$
MNZ065>067-074>077-082>085-091>093-012100-
   South Central Minnesota

CITY           SKY/WX    TMP DP  RH WIND       PRES   REMARKS
MANKATO        PTSUNNY   66  52  59 E8        30.01R
NEW ULM        MOSUNNY   66  52  59 E8        30.00R
ST JAMES       MOSUNNY   64  57  77 E8        30.01R
FAIRMONT       CLOUDY    64  52  63 E8        29.99R
GLENCOE        MOSUNNY   71  51  49 E9        30.01R
FARIBAULT      CLOUDY    66  52  59 E7        30.02R
OWATONNA       CLOUDY    64  52  63 E7        30.01S
WASECA         CLOUDY    63  52  67 E8        30.02S
ALBERT LEA     CLOUDY    64  52  63 E7        30.00R
$$
MNZ078>079-086>088-094>096-012100-
   Southeast Minnesota

CITY           SKY/WX    TMP DP  RH WIND       PRES   REMARKS
ROCHESTER      CLOUDY    61  52  72 NE7       30.02S
RED WING       PTSUNNY   70  48  46 S3        29.99F
STANTON        CLOUDY    64  50  59 E3        30.00S
DODGE CENTER   CLOUDY    63  52  67 E6        30.01S
WINONA         CLOUDY    70  50  49 SE5       30.00S
AUSTIN         CLOUDY    63  52  67 NE6       30.01R
PRESTON        CLOUDY    60  47  62 E3        30.01S
$$
ABBREVIATIONS USED IN REMARKS
   TC - TEMPERATURES IN CELSIUS
  WCI - WIND CHILL INDEX
   HX - HEAT INDEX
  VSB - VISIBILITY
$$


USA.gov is the U.S. government's official web portal to all federal, state and local government web resources and services.